Flag for Germany Weather past 2 weeks in Bergkamen, North Rhine-Westphalia, Germany

Now
41 °F

Overcast.


Feels Like: 37 °F
Forecast: 32 / 37 °F
Wind: 7 mph from Southwest

Location: Muenster / Osnabrueck

Current Time: Dec 25, 2014 at 4:54:38 AM

Latest Report: Dec 25, 2014 at 4:00 AM


Visibility: 25 mi

Pressure: 30.07 "Hg

Humidity: 78%

Dew point: 35 °F

Location of BergkamenLocation

Historic Weather in Bergkamen — Graph

°F

Bergkamen temperature yesterday

Maximum temperature yesterday: 50 °F (at 12:00 AM)
Minimum temperature yesterday: 40 °F (at 10:00 PM)
Average temperature yesterday: 46 °F

Past Weeks' High & Low Weather Summary

 TemperatureHumidityPressure
High54 °F (Dec 18, 7:00 PM)97% (Dec 14, 2:00 AM)30.34 "Hg (Dec 14, 2:00 AM)
Low34 °F (Dec 14, 10:00 PM)68% (Dec 10, 5:00 AM)29.32 "Hg (Dec 12, 2:00 PM)
Average44 °F86%29.88 "Hg
* Reported Dec 10 4:00 AM — Dec 25 4:00 AM, Bergkamen, Weather by CustomWeather, © 2014

Note: Actual official high and low records may vary slightly from our data, if they occured in-between our weather recording intervals... More about our weather records

Advertising

Bergkamen weather history for previous 24 hours

 ConditionsComfort  
Time TempWeatherWind HumidityBarometerVisibility
4:00 AM
Dec 25
41 °FOvercast.7 mph78%30.07 "Hg25 mi
3:00 AM41 °FOvercast.7 mph78%30.06 "Hg25 mi
2:00 AM42 °FPassing clouds.8 mph76%30.06 "Hg25 mi
1:00 AM41 °FOvercast.6 mph78%30.06 "Hg25 mi
12:00 AM40 °FPassing clouds.6 mph78%30.06 "Hg25 mi
11:00 PM
Dec 24
40 °FPassing clouds.6 mph78%30.04 "Hg25 mi
10:00 PM40 °FClear.6 mph80%30.03 "Hg25 mi
9:00 PM40 °FClear.5 mph80%30.02 "Hg25 mi
8:00 PM42 °FPassing clouds.5 mph81%30.00 "Hg25 mi
7:00 PM44 °FOvercast.5 mph89%29.97 "Hg19 mi
6:00 PM45 °FOvercast.5 mph89%29.96 "Hg22 mi
5:00 PM45 °FOvercast.6 mph87%29.93 "Hg19 mi
4:00 PM45 °FOvercast.6 mph91%29.92 "Hg9 mi
3:00 PM46 °FLight rain. Overcast.7 mph90%29.90 "Hg12 mi
2:00 PM48 °FRain. Low clouds.8 mph94%29.88 "Hg5 mi
1:00 PM47 °FRain. Low clouds.9 mph92%29.88 "Hg5 mi
12:00 PM47 °FRain. Low clouds.9 mph92%29.88 "Hg5 mi
11:00 AM47 °FRain. Low clouds.9 mph92%29.89 "Hg4 mi
10:00 AM47 °FRain. Low clouds.10 mph90%29.88 "Hg6 mi
9:00 AM47 °FRain. Overcast.9 mph89%29.88 "Hg6 mi
8:00 AM47 °FOvercast.8 mph85%29.88 "Hg12 mi
7:00 AM46 °FLight rain. Overcast.8 mph86%29.88 "Hg12 mi
6:00 AM48 °FLight rain. Overcast.9 mph78%29.89 "Hg16 mi
5:00 AM49 °FOvercast.8 mph71%29.90 "Hg16 mi
4:00 AM49 °FOvercast.9 mph72%29.92 "Hg16 mi
Weather by CustomWeather, © 2014

See weather overviewHow to use our weather pages